Tracking 18840 objects as of 19-November-2017
HD Live streaming from Space Station
objects crossing your sky now

FENGYUN 1C DEB

Track FENGYUN 1C DEB now!
10-day predictions


NORAD ID: 30572
Int'l Code: 1999-025ALN
Perigee: 859.4 km
Apogee: 895.1 km
Inclination: 99.1 °
Period: 102.4 minutes
Semi major axis: 7248 km
RCS: 0.0635 m2 (small)
Launch date: May 10, 1999
Source: People's Republic of China (PRC)
Launch site: Taiyaun Space Center, China (TSC)

Note: This is SATELLITE DEBRIS
aabbcc
Your satellite tracking list
Your tracking list is empty




NASA's NSSDC Master Catalog

Two Line Element Set (TLE):
1 30572U 99025ALN 17322.57366370 +.00000336 +00000-0 +22878-3 0  9996
2 30572 099.0982 339.5915 0024598 263.5888 218.8843 14.06862295553188
Source of the keplerian elements: AFSPC